Theta_e
355 355 353 353 352 350 354 353 353 349 339 340 349 351 352 353 353 353 352 352 353 353 352 352 349 350 352 350 349 350 349 349 351 350 352 352 352 355 352 351 350 349 349
355 354 354 351 354 355 353 350 352 351 341 350 352 354 354 353 353 353 353 352 352 352 353 352 350 349 350 351 351 352 352 352 351 352 351 350 354 351 350 349 348 351 348
354 353 354 355 355 353 354 352 354 351 351 352 353 353 353 352 353 352 351 351 355 352 348 351 352 349 351 348 349 353 351 352 351 353 351 350 350 348 348 348 350 350 350
354 354 355 356 356 355 355 353 353 353 351 350 352 354 354 355 354 353 352 354 355 353 353 351 351 349 348 350 351 353 350 352 353 352 352 350 348 347 347 345 341 349 346
353 354 356 357 356 355 355 355 353 352 352 352 352 353 354 355 354 353 353 353 352 350 351 354 352 351 352 351 352 352 350 350 352 349 349 348 347 347 344 348 350 350 348
348 350 350 343 351 354 353 354 353 353 353 353 354 355 355 355 354 352 352 352 352 352 349 351 353 352 353 353 352 352 348 348 351 350 351 346 348 348 349 349 348 348 348
349 348 352 354 353 353 353 356 356 356 354 357 356 356 355 356 353 354 351 353 352 351 350 352 352 353 351 351 353 352 348 347 347 346 344 351 350 346 343 343 342 343 343
345 341 343 353 356 355 355 358 358 359 358 358 358 357 356 356 356 351 352 352 353 352 352 352 351 351 352 354 354 352 349 347 344 346 348 344 341 338 339 340 341 342 340
350 347 344 348 352 354 355 356 359 357 357 357 360 358 356 358 356 356 354 351 351 350 351 352 352 351 353 352 351 352 350 345 339 341 340 334 333 334 335 339 338 338 340
349 351 352 352 352 353 353 354 356 356 357 356 357 358 358 358 356 353 353 353 353 352 352 352 351 351 352 351 349 350 348 339 335 330 330 331 331 332 332 331 331 331 333
347 349 350 350 351 352 352 351 352 355 356 356 357 356 356 355 355 351 352 352 353 351 349 351 348 349 348 347 345 345 347 333 331 332 330 329 329 328 326 322 324 325 326
346 348 348 350 350 350 351 352 353 355 355 355 356 356 354 353 352 353 350 350 351 351 350 348 342 343 345 342 341 342 343 335 331 329 329 326 323 323 322 319 318 316 317
346 348 347 348 348 346 347 348 350 348 348 348 350 353 353 351 352 351 348 349 350 350 347 341 338 336 336 334 335 334 333 330 330 329 327 324 322 321 323 323 322 322 320
346 347 347 347 342 340 338 338 339 341 345 344 344 344 341 343 342 343 343 343 345 342 336 333 333 333 332 329 329 329 329 328 327 324 323 323 323 322 321 320 324 324 324
344 345 345 342 341 333 333 332 334 335 336 338 342 341 339 338 337 341 341 339 338 335 331 328 327 327 328 329 327 326 325 325 324 323 322 321 321 319 318 317 317 317 320
344 344 341 338 336 333 329 322 326 329 331 334 336 338 336 337 336 332 334 334 329 326 325 324 323 323 323 322 322 322 322 322 321 318 316 316 316 316 316 316 316 317 318
342 340 337 335 333 330 328 324 320 321 328 331 332 333 332 329 327 325 323 323 323 324 323 323 322 322 320 319 319 319 319 318 317 316 315 314 315 314 314 313 313 314 315
336 336 334 333 331 328 326 323 320 319 317 317 324 324 323 322 322 323 324 324 323 322 322 321 321 319 318 318 319 318 316 315 314 313 313 313 312 312 312 311 309 309 311
334 334 334 331 331 327 325 323 320 319 318 317 320 322 322 323 323 324 323 321 321 321 320 319 319 319 320 318 316 315 315 314 312 312 311 311 311 311 310 310 309 309 311
333 335 332 332 330 328 325 324 323 322 322 321 320 320 322 322 321 320 319 319 318 318 319 320 321 319 317 317 317 316 313 312 312 312 312 311 311 311 311 311 311 311 311
333 335 334 333 334 331 328 326 326 325 324 323 321 321 319 320 320 320 320 320 321 321 321 319 318 317 316 314 314 314 315 315 314 313 312 312 312 311 312 311 312 312 310
334 334 334 334 335 333 331 330 328 328 327 325 322 321 321 322 323 324 324 324 320 319 317 318 317 319 318 317 316 316 314 314 314 314 313 313 312 312 312 312 312 311 311
332 331 329 330 330 328 328 326 324 323 323 322 322 322 320 320 322 321 321 321 320 319 320 319 319 319 319 318 318 316 316 315 314 314 314 314 313 312 311 311 311 311 310
329 328 328 325 324 323 324 324 324 324 321 321 320 320 321 320 320 319 319 319 319 320 320 321 320 320 319 319 318 318 317 315 314 311 312 312 312 311 312 311 311 310 310
323 322 323 322 322 322 322 322 321 320 320 320 320 320 320 320 320 320 319 320 320 320 320 319 320 320 320 320 319 318 317 315 314 313 312 311 312 311 311 311 311 310 310
318 318 319 319 319 320 320 319 318 318 317 318 319 319 319 320 320 320 320 321 320 321 321 320 320 321 321 320 320 318 316 316 314 313 312 312 312 311 311 310 310 310 310
Wind_Speed
26 28 26 23 22 22 16 15 15 16 17 3 1 10 11 11 11 11 12 11 9 11 9 9 8 5 8 10 13 15 13 7 5 12 9 12 6 5 5 10 11 3 4
26 27 26 26 26 24 20 19 16 15 16 12 17 18 12 10 12 13 14 12 11 13 10 13 9 7 7 8 10 14 15 13 7 10 12 9 1 5 7 5 4 2 1
28 29 29 27 24 23 23 23 21 22 22 20 16 16 17 17 17 15 16 15 15 10 12 19 11 9 9 10 9 12 12 9 10 10 12 11 7 8 4 4 4 4 4
38 31 28 28 26 25 22 25 24 22 23 23 22 20 20 20 19 19 19 19 19 19 16 14 12 14 14 12 11 9 11 10 9 10 9 11 8 7 3 2 3 2 1
25 23 22 23 24 23 23 20 20 22 22 22 23 23 23 22 21 21 21 19 20 18 19 14 13 15 14 10 11 9 7 9 9 9 6 4 4 2 5 4 5 1 5
12 4 20 26 25 24 22 20 21 22 24 24 24 24 23 24 23 24 25 24 19 18 19 16 15 14 15 13 11 11 11 11 9 7 1 4 4 4 4 2 3 1 3
4 9 24 14 20 25 22 20 22 26 26 25 25 25 26 27 28 26 26 30 22 21 19 18 16 15 10 8 11 10 9 9 8 6 5 2 2 1 1 2 2 3 4
10 12 11 11 15 17 19 21 24 25 24 25 26 28 27 28 29 30 22 26 22 21 19 17 17 18 16 12 11 6 5 6 5 3 5 2 3 2 3 1 3 0 5
13 16 16 16 18 16 19 22 25 25 25 26 27 28 30 29 30 30 29 26 24 23 21 20 19 17 17 17 13 13 12 7 3 4 2 5 4 2 2 2 4 3 4
13 11 12 12 15 16 17 19 22 24 25 28 27 28 31 32 32 32 33 28 23 21 22 24 22 18 17 13 9 11 12 11 8 7 7 6 6 5 6 7 7 8 4
15 15 15 14 14 15 17 18 17 18 21 23 26 27 29 31 33 32 34 32 27 21 21 14 15 13 11 8 11 9 7 19 16 12 9 7 7 8 9 10 10 6 13
16 16 15 14 12 9 7 10 12 13 16 20 22 25 29 32 29 32 34 31 27 20 14 17 10 9 9 9 8 5 11 17 14 12 9 8 9 9 8 10 7 9 10
16 13 10 8 6 5 4 5 5 6 9 11 12 18 21 14 20 14 17 22 19 18 19 14 12 12 11 12 12 11 11 15 18 16 11 6 10 8 8 6 5 7 9
15 10 6 10 6 4 6 5 6 6 6 6 6 1 8 15 13 12 14 15 18 17 19 20 18 17 20 20 18 19 18 17 17 17 15 8 7 6 5 6 4 2 5
14 9 9 6 6 4 3 2 6 7 7 8 7 4 6 7 8 12 19 22 22 25 28 27 27 27 27 27 26 23 21 16 12 11 8 5 6 9 7 4 4 8 7
11 6 7 8 8 5 3 1 4 3 6 9 8 6 5 6 9 15 21 21 27 34 32 29 25 26 26 23 21 19 16 20 14 11 10 10 8 7 9 7 7 7 7
8 7 13 10 8 6 5 4 5 9 3 2 2 3 2 10 15 17 27 32 31 31 32 26 29 28 26 23 18 16 10 10 14 13 11 10 9 8 10 10 9 10 9
10 13 13 12 10 10 9 8 11 14 15 19 19 22 23 29 34 36 36 35 27 23 25 24 23 25 23 18 13 13 13 12 12 13 12 10 9 9 6 8 5 6 6
10 14 12 13 14 16 14 15 17 20 22 25 31 32 31 32 32 32 31 32 27 25 21 22 21 16 14 17 15 13 13 12 11 10 9 10 8 6 5 7 6 5 3
12 10 17 18 23 20 19 18 16 17 18 20 23 24 26 26 25 24 23 24 24 25 21 15 12 16 17 17 17 15 14 12 12 10 9 7 5 5 4 5 2 5 2
15 14 17 20 19 23 25 21 18 17 16 16 21 26 27 28 25 23 22 20 12 13 17 19 17 16 16 17 16 14 13 10 10 9 9 6 3 6 4 4 1 1 4
17 12 17 13 16 22 21 22 25 20 20 18 17 21 24 16 15 17 16 20 22 19 18 19 18 17 15 13 13 13 12 11 10 9 9 8 7 6 3 3 1 2 2
19 15 18 17 14 18 22 20 21 23 18 18 18 18 23 19 12 14 13 21 22 22 19 18 17 17 14 11 10 11 16 16 11 7 7 7 5 2 2 3 1 3 8
22 21 22 27 25 19 14 9 16 15 20 18 17 17 17 16 16 16 17 17 17 18 16 16 16 18 16 15 13 10 9 16 11 7 3 3 5 3 2 1 3 3 6
20 18 23 25 29 16 13 6 17 20 16 11 13 15 12 17 15 16 16 15 14 15 13 11 10 10 13 12 13 14 15 18 17 11 8 3 2 1 0 3 1 3 12
26 20 17 8 11 20 16 13 14 15 14 12 10 11 13 14 15 11 12 12 10 7 10 8 4 2 2 4 8 12 15 19 16 13 8 4 4 2 3 1 4 3 6
Wind_Direction
188 189 195 201 205 214 220 217 231 263 250 173 161 246 213 209 220 230 247 271 235 251 261 279 272 298 309 321 327 337 328 10 358 324 22 9 22 111 68 341 309 259 188
194 199 200 194 199 204 209 221 224 224 237 234 200 218 222 218 227 231 238 246 232 242 258 263 263 267 303 282 300 329 337 324 325 315 330 338 94 49 32 61 337 54 127
200 199 194 192 198 206 206 208 216 214 220 236 242 237 231 228 234 237 235 242 250 247 233 256 231 255 274 279 289 300 306 319 323 321 312 327 17 18 47 55 44 260 241
221 194 199 194 198 202 213 208 215 221 222 224 230 230 228 227 232 239 236 234 242 249 248 252 250 258 265 271 279 283 301 307 311 317 320 336 350 349 358 346 52 124 206
189 211 190 197 203 214 213 216 215 222 227 230 230 231 230 233 237 237 237 244 239 247 245 255 250 254 240 266 265 276 278 285 300 312 316 349 19 353 333 340 322 147 147
322 188 218 209 234 226 220 226 223 222 227 231 231 233 233 231 235 238 237 232 236 239 242 250 254 274 282 274 266 270 265 262 270 277 249 290 285 284 295 324 331 67 144
157 179 254 183 222 231 229 229 228 229 227 224 226 227 232 236 237 247 246 233 230 234 234 244 249 254 256 273 262 266 266 261 238 235 245 269 200 221 343 5 350 44 82
254 251 285 277 258 250 242 238 237 234 230 226 228 229 229 232 236 241 248 224 225 229 233 240 246 251 259 248 250 250 175 191 184 134 196 192 184 181 166 287 342 335 132
251 261 257 261 261 266 253 250 239 238 237 236 234 231 230 232 231 231 233 227 232 233 234 242 245 253 246 252 240 211 187 202 204 206 182 147 129 112 58 176 97 62 128
297 289 287 282 274 266 263 259 253 246 244 242 240 238 235 231 231 229 233 223 223 232 236 237 239 235 240 252 220 217 198 182 170 132 119 124 112 94 80 70 75 67 103
289 284 269 274 270 265 268 267 267 252 248 249 246 244 242 242 238 233 230 223 222 231 232 209 216 220 220 227 209 195 204 165 157 155 136 127 102 84 86 86 75 66 69
283 283 270 261 256 247 268 279 271 263 259 255 251 251 248 248 245 238 234 225 220 223 195 180 194 199 205 207 216 204 186 170 149 130 115 110 92 79 72 80 67 73 82
283 287 268 229 197 224 244 259 280 264 265 275 279 265 262 235 230 227 216 209 211 190 182 179 156 144 143 133 132 140 154 146 134 118 109 115 100 95 95 89 76 93 93
289 280 244 186 192 215 231 243 260 272 277 257 258 124 150 158 157 166 183 176 180 159 149 141 142 138 130 117 110 107 98 94 92 99 108 103 105 112 98 58 213 196 170
293 273 181 179 193 186 204 292 269 268 277 286 293 214 221 202 174 201 189 171 165 157 143 133 125 120 116 115 113 112 111 104 98 100 115 129 115 116 82 62 49 9 5
285 199 202 194 179 165 150 70 357 297 271 260 259 263 214 209 202 187 179 173 154 146 129 122 118 116 116 118 120 124 131 129 141 138 117 100 95 89 75 60 23 8 56
268 229 197 176 149 134 123 122 90 57 70 148 191 197 194 141 143 139 133 127 127 126 118 120 122 126 128 131 134 133 137 109 132 125 121 97 85 90 71 68 50 53 56
250 206 178 156 143 129 122 107 102 96 87 91 110 114 117 123 125 126 126 124 114 116 120 125 132 139 142 145 152 148 131 118 119 113 107 96 84 81 79 80 51 32 50
220 199 172 149 141 126 119 109 104 103 103 105 111 112 116 119 121 125 130 124 124 126 130 134 146 158 148 140 135 139 139 139 123 113 109 107 106 102 116 147 113 100 121
201 181 160 153 141 131 124 119 114 112 113 116 117 119 125 124 122 124 126 127 133 137 144 162 174 150 138 142 149 148 139 135 131 128 118 108 85 105 130 119 120 220 77
189 185 173 162 160 148 145 146 140 135 130 134 142 144 141 138 141 147 156 163 178 182 163 146 141 145 149 144 138 137 137 135 129 125 130 121 155 136 132 132 152 101 97
190 172 181 179 177 154 156 157 154 156 152 154 161 170 162 168 187 174 184 175 156 155 157 154 148 152 153 157 165 153 143 143 149 152 162 155 167 152 146 181 224 206 233
177 148 130 134 137 138 154 155 151 158 162 153 163 182 203 232 156 149 141 143 153 155 156 158 161 161 161 166 173 178 179 157 138 134 165 169 182 154 49 337 344 91 99
162 148 140 126 118 110 110 162 204 219 139 162 178 187 175 147 147 150 145 153 155 157 167 175 175 177 177 182 184 184 153 147 139 134 98 114 128 135 257 218 268 85 137
108 113 130 135 132 144 160 179 120 134 137 113 82 105 109 133 130 152 154 160 167 166 171 178 186 199 184 191 202 208 181 149 149 128 142 126 96 32 176 310 9 10 134
106 109 107 134 159 151 151 164 144 140 151 160 161 151 165 167 162 167 157 161 169 170 164 174 127 138 127 190 220 197 181 182 173 159 147 160 174 227 109 11 261 235 137